Probability
10 13 10 6 3 3 6 3 0 0 3 0 0 0 0 0 0 0 0 0 0 0 3 3 3 3 3 3 0 3 3 3 3 6 6 3 3 3 3 3 3 3 0
10 13 6 3 6 6 3 0 0 0 3 0 0 0 0 0 0 0 0 0 0 0 3 0 0 0 0 0 0 0 3 3 3 3 6 3 3 0 3 3 0 0 3
10 10 6 6 3 3 3 0 0 0 0 0 0 0 0 0 0 0 0 0 0 0 0 0 0 0 0 0 0 0 0 3 3 3 3 3 3 3 0 3 0 0 0
10 6 6 6 3 3 0 0 0 0 0 0 0 0 0 0 0 0 0 0 0 0 0 0 0 0 0 0 0 0 0 3 3 0 3 0 3 3 0 0 0 0 0
6 6 6 6 6 3 0 0 0 0 0 0 0 0 0 0 0 0 0 0 0 0 3 0 0 0 0 0 0 0 0 0 0 0 0 0 0 0 3 0 0 0 0
3 3 3 0 0 3 3 0 0 0 0 0 0 0 0 0 0 0 0 0 0 0 0 0 0 0 0 0 0 0 0 0 0 0 0 0 0 0 3 0 0 0 0
0 3 0 0 0 3 0 0 0 0 0 0 0 0 0 0 0 0 0 0 0 0 0 0 0 0 0 0 0 0 0 3 0 0 0 3 0 0 0 3 0 0 0
0 0 0 0 0 0 0 0 0 0 0 0 0 0 0 0 0 0 0 0 0 0 0 0 0 0 0 0 0 0 0 3 3 0 0 0 0 0 0 3 3 3 3
3 3 0 0 0 0 0 0 0 0 0 0 0 0 0 0 0 0 0 0 0 0 0 0 0 0 0 0 0 0 0 0 0 0 0 0 0 0 0 0 3 3 3
0 0 0 0 0 0 0 0 0 0 0 0 0 0 0 0 0 0 0 0 0 0 0 0 0 0 0 0 0 0 0 0 3 3 3 0 0 0 0 0 3 3 3
0 0 0 0 0 0 0 0 0 0 0 0 0 0 0 0 0 0 0 0 0 0 0 0 0 0 0 0 0 0 0 0 0 0 0 0 0 0 0 0 3 3 3
0 0 0 0 0 0 0 0 0 0 0 0 0 0 0 0 0 0 0 0 0 0 0 0 0 0 0 0 0 0 0 0 0 0 0 0 0 0 0 0 0 0 0
0 0 0 0 0 0 0 0 0 0 0 0 0 0 0 0 0 0 0 0 0 0 0 0 0 0 0 0 0 0 0 0 0 0 0 0 0 0 0 0 0 0 0
0 0 0 0 0 0 0 0 0 0 0 0 0 0 0 0 0 0 0 0 0 0 0 0 0 0 0 0 0 0 0 0 0 0 0 0 0 0 0 0 0 0 0
0 0 0 0 0 0 0 0 0 0 0 0 0 0 0 0 0 0 0 0 0 0 0 0 0 0 0 0 0 0 0 0 0 0 0 0 0 0 0 0 0 0 0
0 0 0 0 0 0 0 0 0 0 0 0 0 0 0 0 0 0 0 0 0 0 0 0 0 0 0 0 0 0 0 0 0 0 0 0 0 0 0 0 0 0 0
0 0 0 0 0 0 0 0 0 0 0 0 0 0 0 0 0 0 0 0 0 0 0 0 0 0 0 0 0 0 0 0 0 0 0 0 0 0 0 0 0 0 0
0 0 0 0 0 0 0 0 0 0 0 0 0 0 0 0 0 0 0 0 0 0 0 0 0 0 0 0 0 0 0 0 0 0 0 0 0 0 0 0 0 0 0
0 0 0 0 0 0 0 0 0 0 0 0 0 0 0 0 0 0 0 0 0 0 0 0 0 0 0 0 0 0 0 0 0 0 0 0 0 0 0 0 0 0 0
0 0 0 0 0 0 0 0 0 0 0 0 0 0 0 0 0 0 0 0 0 0 0 0 0 0 0 0 0 0 0 0 0 0 0 0 0 0 0 0 0 0 0
0 0 0 0 0 0 0 0 0 0 0 0 0 0 0 0 0 0 0 0 0 0 0 0 0 0 0 0 0 0 0 0 0 0 0 0 0 0 0 0 0 0 0
0 0 0 0 0 0 0 0 0 0 0 0 0 0 0 0 0 0 0 0 0 0 0 0 0 0 0 0 0 0 0 0 0 0 0 0 0 0 0 0 0 0 0
0 0 0 0 0 0 0 0 0 0 0 0 0 0 0 0 0 0 0 0 0 0 0 0 0 0 0 0 0 0 0 0 0 0 0 0 0 0 0 0 0 0 0
0 0 0 0 0 0 0 0 0 0 0 0 0 0 0 0 0 0 0 0 0 0 0 0 0 0 0 0 0 0 0 0 0 0 0 0 0 0 0 0 0 0 0
0 0 0 0 0 0 0 0 0 0 0 0 0 0 0 0 0 0 0 0 0 0 0 0 0 0 0 0 0 0 0 0 0 0 0 0 0 0 0 0 0 0 0
0 0 0 0 0 0 0 0 0 0 0 0 0 0 0 0 0 0 0 0 0 0 0 0 0 0 0 0 0 0 0 0 0 0 0 0 0 0 0 0 0 0 0
Height
5815 5817 5819 5821 5823 5825 5826 5827 5828 5829 5830 5831 5831 5832 5833 5833 5834 5835 5835 5836 5836 5836 5836 5836 5835 5835 5834 5833 5833 5832 5831 5829 5828 5827 5825 5824 5823 5822 5820 5819 5817 5815 5814
5809 5811 5813 5815 5817 5819 5820 5822 5823 5824 5825 5826 5827 5827 5828 5829 5829 5830 5830 5831 5831 5831 5831 5831 5831 5830 5830 5829 5828 5827 5826 5825 5824 5822 5821 5820 5818 5817 5816 5814 5812 5811 5809
5802 5805 5807 5810 5811 5813 5815 5816 5817 5818 5820 5821 5821 5822 5823 5823 5824 5825 5825 5826 5826 5826 5826 5826 5825 5825 5824 5824 5823 5822 5821 5820 5819 5817 5816 5815 5814 5812 5811 5809 5808 5806 5804
5796 5798 5801 5803 5805 5807 5808 5809 5811 5812 5813 5814 5815 5816 5817 5818 5818 5819 5820 5820 5820 5820 5820 5820 5820 5819 5818 5818 5817 5816 5815 5814 5813 5812 5811 5810 5808 5807 5806 5804 5803 5801 5799
5789 5792 5794 5796 5798 5800 5802 5803 5804 5805 5806 5808 5808 5809 5810 5811 5812 5813 5814 5814 5814 5814 5814 5814 5813 5813 5812 5811 5811 5810 5809 5808 5807 5806 5805 5804 5803 5802 5801 5799 5798 5796 5794
5781 5784 5787 5789 5791 5793 5794 5796 5797 5798 5799 5800 5801 5802 5803 5805 5806 5807 5807 5807 5808 5808 5807 5807 5806 5806 5805 5804 5804 5803 5802 5802 5800 5799 5798 5797 5796 5795 5795 5793 5792 5790 5788
5774 5777 5779 5781 5783 5785 5787 5788 5789 5790 5791 5792 5793 5795 5796 5797 5798 5799 5800 5800 5801 5800 5800 5800 5799 5799 5798 5798 5797 5797 5796 5795 5793 5792 5791 5790 5790 5789 5788 5787 5786 5784 5783
5766 5768 5771 5773 5775 5777 5779 5780 5781 5782 5783 5784 5786 5787 5788 5790 5791 5792 5793 5793 5793 5793 5793 5792 5792 5791 5791 5791 5790 5789 5788 5787 5786 5785 5784 5783 5783 5782 5781 5780 5779 5778 5776
5757 5760 5762 5765 5767 5769 5770 5772 5773 5774 5775 5777 5778 5779 5781 5782 5784 5785 5785 5785 5785 5786 5785 5785 5785 5784 5784 5783 5783 5782 5781 5780 5779 5778 5777 5776 5776 5775 5774 5773 5772 5771 5769
5749 5752 5754 5757 5759 5760 5762 5764 5765 5766 5767 5769 5770 5771 5773 5774 5775 5777 5778 5778 5778 5778 5778 5777 5777 5777 5776 5776 5775 5774 5773 5772 5772 5771 5770 5769 5768 5767 5767 5766 5765 5763 5762
5741 5744 5746 5748 5750 5752 5753 5755 5757 5758 5759 5761 5762 5763 5764 5765 5766 5768 5769 5770 5770 5769 5769 5769 5769 5769 5768 5768 5767 5766 5765 5765 5764 5763 5762 5761 5760 5760 5759 5758 5756 5755 5754
5733 5736 5738 5740 5741 5743 5745 5746 5748 5749 5751 5752 5753 5754 5755 5756 5757 5758 5760 5760 5761 5761 5761 5760 5760 5760 5760 5760 5759 5758 5757 5756 5756 5755 5754 5753 5752 5751 5750 5749 5748 5747 5745
5725 5728 5729 5731 5732 5734 5735 5736 5738 5739 5741 5742 5743 5744 5745 5746 5748 5749 5750 5751 5752 5752 5752 5751 5751 5751 5751 5751 5750 5749 5749 5748 5747 5746 5745 5744 5743 5742 5741 5740 5739 5737 5736
5717 5719 5720 5721 5723 5724 5725 5727 5728 5729 5730 5731 5733 5734 5735 5736 5738 5739 5740 5741 5742 5743 5743 5742 5742 5742 5741 5741 5741 5740 5739 5739 5738 5737 5736 5735 5734 5733 5732 5730 5729 5727 5726
5708 5709 5711 5712 5713 5714 5715 5716 5717 5718 5719 5721 5722 5723 5725 5726 5727 5728 5730 5731 5732 5732 5733 5733 5732 5732 5731 5731 5731 5730 5729 5729 5728 5727 5726 5725 5724 5722 5721 5720 5718 5717 5715
5698 5699 5700 5701 5702 5703 5704 5705 5706 5707 5708 5710 5711 5713 5714 5715 5716 5718 5718 5719 5720 5721 5722 5722 5721 5721 5720 5720 5720 5719 5718 5718 5717 5716 5715 5714 5713 5711 5710 5708 5707 5705 5703
5688 5689 5690 5690 5691 5692 5693 5694 5695 5696 5697 5698 5699 5701 5702 5704 5705 5706 5707 5708 5708 5709 5710 5711 5710 5709 5708 5708 5707 5707 5706 5706 5705 5704 5703 5702 5700 5699 5697 5695 5694 5692 5690
5676 5677 5678 5679 5680 5681 5681 5682 5683 5684 5685 5687 5687 5689 5690 5692 5693 5694 5695 5695 5696 5696 5697 5698 5698 5697 5697 5696 5695 5694 5694 5693 5692 5691 5690 5689 5687 5686 5684 5682 5680 5678 5677
5664 5665 5666 5667 5668 5669 5669 5670 5671 5672 5673 5674 5675 5676 5678 5679 5680 5681 5682 5682 5683 5683 5683 5684 5684 5684 5683 5682 5681 5681 5680 5679 5678 5677 5676 5675 5673 5672 5670 5668 5666 5664 5662
5652 5653 5654 5655 5656 5656 5657 5658 5658 5659 5660 5661 5662 5663 5665 5666 5667 5668 5668 5668 5669 5669 5669 5669 5670 5670 5669 5668 5667 5666 5666 5665 5664 5663 5662 5660 5659 5657 5656 5654 5652 5650 5648
5639 5640 5641 5642 5642 5643 5644 5644 5644 5645 5647 5648 5649 5650 5651 5651 5652 5653 5654 5654 5654 5654 5654 5654 5654 5654 5654 5653 5652 5651 5651 5650 5649 5648 5647 5646 5644 5643 5641 5639 5637 5636 5634
5626 5627 5628 5628 5629 5629 5630 5630 5630 5631 5632 5633 5634 5635 5636 5637 5637 5638 5638 5639 5639 5639 5639 5638 5638 5638 5638 5638 5637 5636 5635 5634 5635 5634 5632 5630 5628 5627 5625 5624 5622 5620 5619
5612 5613 5614 5614 5615 5615 5616 5616 5616 5617 5618 5618 5619 5620 5621 5621 5622 5622 5622 5623 5623 5622 5622 5622 5622 5622 5622 5622 5621 5620 5619 5618 5618 5617 5615 5615 5613 5611 5610 5608 5606 5604 5603
5598 5598 5599 5599 5600 5600 5601 5601 5601 5602 5602 5603 5604 5604 5605 5605 5605 5605 5606 5606 5606 5606 5606 5605 5606 5606 5605 5604 5603 5603 5602 5601 5601 5600 5599 5599 5597 5596 5594 5592 5590 5588 5587
5584 5584 5584 5584 5584 5585 5585 5586 5586 5586 5587 5588 5588 5588 5588 5589 5589 5589 5589 5590 5590 5590 5589 5589 5589 5589 5588 5588 5586 5585 5585 5584 5585 5585 5583 5582 5581 5580 5579 5577 5575 5573 5571
5569 5569 5569 5569 5569 5570 5570 5570 5571 5571 5572 5572 5572 5572 5572 5572 5572 5571 5571 5572 5573 5573 5573 5573 5573 5572 5572 5571 5570 5568 5568 5567 5567 5568 5567 5566 5565 5563 5564 5563 5560 5558 5556
Wind_Speed
28 27 26 25 25 24 23 23 22 22 22 22 22 22 22 22 22 21 21 21 22 22 21 21 21 21 21 21 21 21 21 22 22 22 22 22 22 22 23 22 22 22 23
30 28 27 27 27 26 25 24 24 23 24 23 23 23 23 23 23 23 23 22 23 23 23 23 23 22 22 22 22 22 22 22 23 23 23 23 23 23 23 24 24 24 25
31 30 29 28 28 28 28 27 26 25 25 24 25 25 25 25 25 25 24 24 24 24 24 25 25 24 25 24 24 23 24 24 24 24 25 25 25 25 24 25 25 25 26
33 32 30 29 30 30 29 29 28 28 27 27 27 28 27 27 26 26 26 26 26 25 26 26 26 26 26 26 25 25 26 26 26 26 26 26 26 26 26 26 26 27 27
33 33 32 32 32 32 32 31 31 31 30 29 29 29 29 29 28 28 28 27 27 27 27 27 28 28 28 28 27 27 27 27 27 27 27 27 27 27 27 27 27 28 27
35 35 35 34 34 33 33 33 33 33 32 32 32 31 31 31 31 30 29 29 29 29 29 29 29 29 29 29 29 29 29 29 29 29 29 29 29 29 29 29 29 29 28
36 36 37 35 35 35 34 34 35 34 34 34 33 32 33 32 32 31 31 31 30 30 30 30 30 30 30 30 30 30 30 31 31 30 30 30 30 30 29 29 30 30 30
36 36 37 37 37 36 36 34 35 35 35 34 34 34 34 34 34 33 33 32 32 32 31 31 30 31 31 31 31 31 31 31 31 31 31 31 31 30 30 30 30 31 31
38 37 36 38 38 38 37 36 36 36 36 36 35 35 34 35 34 34 34 34 34 33 33 33 32 32 32 32 32 32 33 33 32 32 32 32 32 32 32 32 32 32 32
38 38 38 39 39 39 39 38 36 36 37 37 37 37 36 36 36 35 35 35 35 35 34 34 33 33 33 33 34 34 34 34 34 33 33 33 33 33 33 34 34 34 34
38 39 38 39 40 40 40 40 38 37 37 37 38 38 38 37 37 37 37 37 37 36 36 36 35 35 35 35 35 35 35 35 35 35 35 35 34 35 35 35 36 36 36
39 40 39 39 40 41 41 41 41 40 40 40 40 40 39 39 39 39 39 38 38 37 38 38 37 36 36 37 37 37 37 37 37 37 36 36 37 37 37 37 38 38 38
38 39 40 39 40 41 42 43 43 42 42 42 42 42 41 41 39 39 40 40 40 39 39 39 39 39 39 38 39 38 38 38 38 38 38 39 39 39 39 39 39 39 40
39 40 41 41 41 42 42 42 44 45 44 43 42 43 43 42 41 40 41 41 42 42 42 42 42 41 40 40 40 40 40 40 39 39 40 41 41 41 41 42 42 42 42
41 41 42 42 43 44 44 44 43 44 45 45 45 44 44 44 43 43 43 44 43 43 43 43 42 42 42 42 42 42 42 42 42 42 42 42 42 43 43 43 43 44 44
41 42 42 43 43 44 44 44 44 44 44 44 45 45 46 46 46 46 45 45 45 45 45 45 44 44 44 44 45 45 45 45 44 44 45 44 44 44 44 45 45 45 46
42 43 43 43 43 44 44 44 44 45 44 45 45 46 47 47 46 46 46 46 47 47 47 48 47 47 46 46 47 47 47 47 46 46 47 47 46 46 46 46 47 48 48
42 43 43 43 44 45 45 46 46 46 46 46 47 47 47 48 48 48 48 49 49 50 50 50 49 49 49 49 49 49 49 49 49 49 48 48 48 48 48 49 49 49 49
45 45 45 45 45 45 45 46 47 48 48 48 47 47 48 50 50 50 50 51 51 51 51 52 52 52 51 51 51 51 51 52 51 51 50 50 50 50 51 51 51 51 51
46 46 46 47 47 47 47 48 48 49 49 49 49 49 50 51 52 52 53 53 52 52 52 54 54 54 54 53 54 53 53 53 52 52 52 52 52 52 52 52 52 52 51
46 47 47 47 48 48 49 49 49 50 50 51 51 51 51 52 53 54 54 53 53 53 54 55 55 56 56 56 55 54 54 54 54 54 54 54 54 54 54 53 53 52 52
47 48 48 49 49 49 49 50 50 51 52 52 52 52 52 53 54 55 55 55 54 54 55 55 55 55 55 56 56 55 55 55 55 55 55 55 55 54 54 53 53 53 53
48 49 50 51 51 51 51 51 51 52 52 52 53 53 53 54 55 56 56 56 56 55 55 56 56 56 57 56 57 57 56 56 55 55 56 55 54 54 54 54 54 54 54
50 50 51 52 52 52 52 52 51 52 53 53 54 55 55 55 55 56 57 57 57 56 56 57 57 57 57 57 57 57 56 56 56 56 56 56 55 55 55 55 54 54 54
51 51 52 52 53 53 53 53 53 53 53 54 54 55 55 55 55 56 57 57 57 56 56 56 56 57 57 57 57 57 57 57 56 56 57 57 56 56 55 54 53 53 53
52 51 52 53 53 53 53 53 52 53 53 53 54 54 54 55 55 56 56 57 57 56 56 56 56 56 57 57 57 57 58 57 57 56 56 55 55 55 54 53 53 52 52
Wind_Direction
234 237 240 242 245 245 247 251 251 252 252 252 252 253 255 258 260 262 265 268 271 273 275 276 278 281 283 286 288 290 292 292 293 295 296 296 296 298 300 300 300 300 300
234 237 240 243 245 247 249 251 252 253 253 254 253 253 255 258 260 262 265 269 271 273 274 275 277 279 282 285 286 288 289 290 292 293 293 293 293 295 297 298 299 300 301
234 237 240 244 246 248 251 251 253 254 255 254 255 255 256 258 260 262 265 269 272 273 274 275 276 278 281 282 283 286 287 288 289 292 291 291 292 293 294 297 299 300 301
235 237 241 244 247 249 252 252 252 255 256 256 257 257 257 259 261 262 265 268 271 272 274 275 276 277 280 280 281 285 286 286 287 289 290 289 290 293 295 296 298 300 300
237 239 242 245 248 250 252 253 252 254 257 258 258 258 259 259 260 262 266 268 269 271 274 276 277 276 277 279 280 282 284 285 286 288 288 288 289 291 292 293 295 298 300
239 242 243 245 248 250 252 253 254 255 257 259 259 259 259 259 260 262 265 268 270 272 274 276 277 276 277 278 279 281 283 285 286 287 287 287 288 290 291 292 293 296 298
241 243 244 246 249 251 252 254 254 254 256 258 258 259 258 258 260 262 264 268 271 273 273 274 276 275 276 278 279 281 283 285 284 285 286 285 286 288 289 290 293 294 295
242 245 245 246 249 251 251 252 253 254 255 257 259 259 258 258 259 261 264 267 270 272 273 274 275 275 276 277 279 280 281 284 284 284 284 284 284 285 287 288 291 293 294
242 244 245 245 247 249 251 253 253 254 255 256 257 259 259 259 260 261 264 267 269 270 272 273 274 275 276 277 278 279 281 283 283 284 284 284 284 284 285 286 288 291 292
243 245 246 247 248 250 251 253 255 255 256 257 257 258 260 261 261 263 264 266 268 268 270 272 272 274 276 277 278 279 280 281 281 282 282 283 283 283 284 285 287 289 291
244 245 247 249 250 251 252 252 255 256 257 258 259 260 261 261 262 262 263 265 266 267 269 270 272 273 275 277 278 279 279 280 281 281 281 283 283 283 283 284 286 287 289
246 247 249 250 253 254 254 254 256 257 258 259 260 259 261 261 263 262 262 263 265 267 268 269 271 272 274 276 277 278 279 279 280 280 280 282 283 283 282 283 284 286 288
248 249 250 252 255 256 255 256 256 258 260 261 260 260 259 260 261 262 262 263 264 265 266 268 270 272 274 276 277 277 278 279 280 280 279 281 283 283 282 283 283 285 287
251 251 252 254 256 258 259 259 259 259 260 261 260 260 259 260 260 261 262 264 264 264 265 268 269 270 272 274 276 277 277 278 279 279 279 280 280 281 281 281 283 284 285
253 254 254 257 258 259 261 262 261 262 261 261 260 260 260 259 261 262 262 264 266 266 266 268 269 270 271 273 274 275 276 277 277 278 279 279 280 280 279 280 281 283 284
254 255 257 258 259 260 260 260 261 262 262 262 261 260 260 260 261 263 265 266 267 267 267 268 270 270 271 273 273 274 275 276 276 277 278 279 279 280 279 279 280 282 282
256 256 258 259 260 260 260 260 261 262 262 261 261 261 261 260 261 261 263 265 267 268 268 269 269 271 271 272 273 274 276 276 277 277 277 278 278 279 280 280 280 281 281
257 258 259 260 260 260 260 260 260 261 261 262 262 261 261 260 260 262 263 265 267 268 269 269 269 271 272 272 273 274 275 275 276 276 276 277 278 279 280 280 280 280 281
258 258 259 259 260 260 261 261 260 261 261 263 263 262 262 260 262 263 265 266 267 269 270 270 270 270 271 272 272 273 274 275 276 276 276 277 278 278 279 279 280 280 280
259 259 260 261 262 262 263 263 262 262 263 265 265 264 263 263 264 266 267 268 268 270 271 271 271 270 271 272 272 272 273 274 275 275 276 276 277 278 278 279 280 280 280
262 261 262 263 265 265 265 265 265 264 264 264 264 265 265 264 265 267 267 268 269 269 270 271 271 271 270 271 271 272 272 273 274 275 276 276 277 277 278 279 279 279 279
264 263 263 265 266 266 267 266 265 265 265 265 266 266 266 266 267 268 268 269 270 270 270 271 271 271 271 271 271 271 272 272 274 275 276 276 276 277 278 279 279 279 279
264 264 264 265 265 265 265 266 266 266 266 267 268 267 268 268 269 269 270 270 271 271 271 270 271 272 271 271 272 272 272 273 274 275 275 275 276 277 277 278 278 278 279
265 264 265 265 265 265 265 266 266 267 268 268 268 268 269 269 270 270 270 271 271 271 271 271 271 272 272 272 272 273 273 274 274 274 274 275 275 276 276 277 278 278 279
266 266 265 265 265 266 266 267 267 268 269 270 270 270 270 270 271 271 271 271 271 271 270 271 271 271 272 272 272 273 273 273 273 274 274 274 275 275 275 276 277 278 278
266 266 266 267 267 267 268 268 268 269 271 271 271 271 271 270 270 270 271 271 271 270 270 270 271 271 272 272 273 273 273 274 273 273 273 274 274 274 275 275 276 277 278